Location: Cz?stochówka
(50.8142°N, 19.0915°E)
Time: 14:29:27
(UTC+00:00)

Cosmos 2366 rocket - Pass Details

Date: 15 April 2026
Orbit: 954 x 996 km, 82.9° (Epoch: 16 May)

Event Time Altitude Azimuth Distance (km) Brightness Sun altitude
Rises 19:33:51 0° 199° (SSW) 3,639 6.8 -16.6°
Reaches altitude 10° 19:36:23 10° 202° (SSW) 2,691 6.1 -16.9°
Maximum altitude 19:42:29 63° 284° (WNW) 1,067 4.4 -17.7°
Drops below altitude 10° 19:48:35 10° 5° (N) 2,696 6.8 -18.4°
Sets 19:51:08 0° 9° (N) 3,645 7.5 -18.6°
